International Skating Union - Official Site

ISU World Cup Berlin
December 5-7, 2014

Draw | Lap Times | Index | World Cup

Referee: Erik  ØSMUNDSET  (NOR)
Starter: Jouko  VESTERLUND  (FIN)
StartTime: EndTime: Air Temp: Ice Temp: Humidity:
17:00 17:54 14.6℃ -6.5℃ 31.2%
Result 5000m Men Division B
Rankings as of Dec 7 2014 4:36PM
Rank: No.: Name: Nation: Time: Behind: Points:
1 99 Frank  Vreugdenhil NED NED 6:23.95200m - 19.11 - (19.1)
600m - 48.63 - (29.5)
1000m - 1:18.67 - (30.0)
1400m - 1:48.87 - (30.2)
1800m - 2:19.09 - (30.2)
2200m - 2:49.38 - (30.2)
2600m - 3:19.64 - (30.2)
3000m - 3:50.05 - (30.4)
3400m - 4:20.68 - (30.6)
3800m - 4:51.39 - (30.7)
4200m - 5:22.35 - (30.9)
4600m - 5:53.27 - (30.9)
5000m - 6:23.95 - (30.6)
32
2 34 Alexis  Contin FRA FRA 6:24.70200m - 19.15 - (19.1)
600m - 48.74 - (29.5)
1000m - 1:19.02 - (30.2)
1400m - 1:49.52 - (30.5)
1800m - 2:19.87 - (30.3)
2200m - 2:50.07 - (30.1)
2600m - 3:20.12 - (30.0)
3000m - 3:50.25 - (30.1)
3400m - 4:20.66 - (30.4)
3800m - 4:51.37 - (30.7)
4200m - 5:22.23 - (30.8)
4600m - 5:53.46 - (31.2)
5000m - 6:24.70 - (31.2)
0.75 27
3 96 Arjan  Stroetinga NED NED 6:25.12200m - 19.14 - (19.1)
600m - 49.48 - (30.3)
1000m - 1:20.42 - (30.9)
1400m - 1:51.17 - (30.7)
1800m - 2:21.58 - (30.4)
2200m - 2:51.94 - (30.3)
2600m - 3:22.38 - (30.4)
3000m - 3:52.87 - (30.4)
3400m - 4:23.12 - (30.2)
3800m - 4:53.66 - (30.5)
4200m - 5:24.10 - (30.4)
4600m - 5:54.53 - (30.4)
5000m - 6:25.12 - (30.5)
1.17 23
4 44 Jonas  Pflug GER GER 6:29.00200m - 19.01 - (19.0)
600m - 49.60 - (30.5)
1000m - 1:20.83 - (31.2)
1400m - 1:51.57 - (30.7)
1800m - 2:22.11 - (30.5)
2200m - 2:52.49 - (30.3)
2600m - 3:22.72 - (30.2)
3000m - 3:52.72 - (30.0)
3400m - 4:22.85 - (30.1)
3800m - 4:53.62 - (30.7)
4200m - 5:25.40 - (31.7)
4600m - 5:57.23 - (31.8)
5000m - 6:29.00 - (31.7)
5.05 19
5 47 Marco  Weber GER GER 6:29.75200m - 19.46 - (19.4)
600m - 49.14 - (29.6)
1000m - 1:19.58 - (30.4)
1400m - 1:50.15 - (30.5)
1800m - 2:21.11 - (30.9)
2200m - 2:52.19 - (31.0)
2600m - 3:23.40 - (31.2)
3000m - 3:54.59 - (31.1)
3400m - 4:25.80 - (31.2)
3800m - 4:57.02 - (31.2)
4200m - 5:28.15 - (31.1)
4600m - 5:58.98 - (30.8)
5000m - 6:29.75 - (30.7)
5.80 15
6 108 Peter  Michael NZL NZL 6:30.54200m - 19.11 - (19.1)
600m - 48.67 - (29.5)
1000m - 1:19.10 - (30.4)
1400m - 1:49.62 - (30.5)
1800m - 2:20.34 - (30.7)
2200m - 2:51.16 - (30.8)
2600m - 3:22.16 - (31.0)
3000m - 3:52.93 - (30.7)
3400m - 4:24.01 - (31.0)
3800m - 4:55.46 - (31.4)
4200m - 5:26.99 - (31.5)
4600m - 5:58.89 - (31.8)
5000m - 6:30.54 - (31.6)
6.59 11
7 66 Shane  Williamson JPN JPN 6:31.24200m - 18.44 - (18.4)
600m - 47.79 - (29.3)
1000m - 1:17.42 - (29.6)
1400m - 1:47.62 - (30.2)
1800m - 2:18.23 - (30.6)
2200m - 2:48.82 - (30.5)
2600m - 3:19.68 - (30.8)
3000m - 3:50.61 - (30.9)
3400m - 4:22.53 - (31.9)
3800m - 4:54.39 - (31.8)
4200m - 5:26.73 - (32.3)
4600m - 5:58.64 - (31.9)
5000m - 6:31.24 - (32.6)
7.29 9
8 137 Nils  van der Poel SWE SWE 6:31.30200m - 19.00 - (19.0)
600m - 48.94 - (29.9)
1000m - 1:19.81 - (30.8)
1400m - 1:50.95 - (31.1)
1800m - 2:21.72 - (30.7)
2200m - 2:52.29 - (30.5)
2600m - 3:23.40 - (31.1)
3000m - 3:54.74 - (31.3)
3400m - 4:25.93 - (31.1)
3800m - 4:57.42 - (31.4)
4200m - 5:28.80 - (31.3)
4600m - 6:00.23 - (31.4)
5000m - 6:31.30 - (31.0)
7.35 7
9 105 Fredrik  van der Horst NOR NOR 6:31.78200m - 19.23 - (19.2)
600m - 49.51 - (30.2)
1000m - 1:20.43 - (30.9)
1400m - 1:51.14 - (30.7)
1800m - 2:22.08 - (30.9)
2200m - 2:52.79 - (30.7)
2600m - 3:23.65 - (30.8)
3000m - 3:54.56 - (30.9)
3400m - 4:25.58 - (31.0)
3800m - 4:56.80 - (31.2)
4200m - 5:28.25 - (31.4)
4600m - 5:59.98 - (31.7)
5000m - 6:31.78 - (31.7)
7.83 6
10 83 Haralds  Silovs LAT LAT 6:33.53200m - 18.88 - (18.8)
600m - 48.86 - (29.9)
1000m - 1:19.39 - (30.5)
1400m - 1:50.40 - (31.0)
1800m - 2:21.06 - (30.6)
2200m - 2:51.93 - (30.8)
2600m - 3:22.96 - (31.0)
3000m - 3:54.23 - (31.2)
3400m - 4:25.42 - (31.1)
3800m - 4:56.88 - (31.4)
4200m - 5:28.52 - (31.6)
4600m - 6:00.88 - (32.3)
5000m - 6:33.53 - (32.6)
9.58 5
11 102 Ole Bjørnsmoen  Næss NOR NOR 6:34.13200m - 19.60 - (19.6)
600m - 49.70 - (30.1)
1000m - 1:20.30 - (30.5)
1400m - 1:51.00 - (30.7)
1800m - 2:21.86 - (30.8)
2200m - 2:52.89 - (31.0)
2600m - 3:24.28 - (31.3)
3000m - 3:55.70 - (31.4)
3400m - 4:27.07 - (31.3)
3800m - 4:58.41 - (31.3)
4200m - 5:30.04 - (31.6)
4600m - 6:01.94 - (31.8)
5000m - 6:34.13 - (32.1)
10.18 4
12 121 Sergey  Gryaztsov RUS RUS 6:37.32200m - 18.86 - (18.8)
600m - 49.07 - (30.2)
1000m - 1:19.85 - (30.7)
1400m - 1:50.78 - (30.9)
1800m - 2:21.69 - (30.9)
2200m - 2:53.02 - (31.3)
2600m - 3:24.28 - (31.2)
3000m - 3:55.82 - (31.5)
3400m - 4:27.50 - (31.6)
3800m - 4:59.50 - (32.0)
4200m - 5:31.72 - (32.2)
4600m - 6:04.49 - (32.7)
5000m - 6:37.32 - (32.8)
13.37 3
13 79 Byung-Wook  Ko KOR KOR 6:37.63200m - 19.81 - (19.8)
600m - 50.69 - (30.8)
1000m - 1:21.64 - (30.9)
1400m - 1:52.77 - (31.1)
1800m - 2:23.84 - (31.0)
2200m - 2:55.33 - (31.4)
2600m - 3:26.95 - (31.6)
3000m - 3:58.28 - (31.3)
3400m - 4:29.99 - (31.7)
3800m - 5:01.70 - (31.7)
4200m - 5:33.58 - (31.8)
4600m - 6:05.61 - (32.0)
5000m - 6:37.63 - (32.0)
13.68 2
14 106 Aleksander  Waagenes NOR NOR 6:38.04200m - 19.98 - (19.9)
600m - 50.86 - (30.8)
1000m - 1:21.98 - (31.1)
1400m - 1:53.19 - (31.2)
1800m - 2:24.52 - (31.3)
2200m - 2:55.77 - (31.2)
2600m - 3:26.75 - (30.9)
3000m - 3:58.19 - (31.4)
3400m - 4:29.70 - (31.5)
3800m - 5:01.44 - (31.7)
4200m - 5:33.59 - (32.1)
4600m - 6:05.92 - (32.3)
5000m - 6:38.04 - (32.1)
14.09 1
15 29 Viktor-Hald  Thorup DEN DEN 6:38.32200m - 20.85 - (20.8)
600m - 52.67 - (31.8)
1000m - 1:23.99 - (31.3)
1400m - 1:55.26 - (31.2)
1800m - 2:26.61 - (31.3)
2200m - 2:57.80 - (31.1)
2600m - 3:29.16 - (31.3)
3000m - 4:00.42 - (31.2)
3400m - 4:32.03 - (31.6)
3800m - 5:03.34 - (31.3)
4200m - 5:35.12 - (31.7)
4600m - 6:06.82 - (31.6)
5000m - 6:38.32 - (31.4)
14.37 0
16 52 Luca  Stefani ITA ITA 6:38.41200m - 19.36 - (19.3)
600m - 49.49 - (30.1)
1000m - 1:19.89 - (30.3)
1400m - 1:50.53 - (30.6)
1800m - 2:21.59 - (31.0)
2200m - 2:52.80 - (31.2)
2600m - 3:24.33 - (31.5)
3000m - 3:55.99 - (31.6)
3400m - 4:28.25 - (32.2)
3800m - 5:00.37 - (32.1)
4200m - 5:32.68 - (32.3)
4600m - 6:05.43 - (32.7)
5000m - 6:38.41 - (32.9)
14.46 0
17 134 Martin  Hänggi SUI SUI 6:40.63200m - 19.70 - (19.6)
600m - 50.27 - (30.5)
1000m - 1:21.39 - (31.1)
1400m - 1:52.60 - (31.2)
1800m - 2:24.04 - (31.4)
2200m - 2:55.50 - (31.4)
2600m - 3:27.03 - (31.5)
3000m - 3:58.68 - (31.6)
3400m - 4:30.70 - (32.0)
3800m - 5:03.00 - (32.3)
4200m - 5:35.56 - (32.5)
4600m - 6:08.19 - (32.6)
5000m - 6:40.63 - (32.4)
16.68 0
18 7 Vitaly  Mikhailov BLR BLR 6:40.88200m - 20.06 - (20.0)
600m - 51.30 - (31.2)
1000m - 1:22.55 - (31.2)
1400m - 1:54.05 - (31.5)
1800m - 2:25.33 - (31.2)
2200m - 2:56.62 - (31.2)
2600m - 3:27.88 - (31.2)
3000m - 3:59.46 - (31.5)
3400m - 4:31.09 - (31.6)
3800m - 5:03.36 - (32.2)
4200m - 5:35.71 - (32.3)
4600m - 6:08.31 - (32.6)
5000m - 6:40.88 - (32.5)
16.93 0
19 110 Roland  Cieslak POL POL 6:41.34200m - 19.67 - (19.6)
600m - 50.04 - (30.3)
1000m - 1:21.02 - (30.9)
1400m - 1:52.20 - (31.1)
1800m - 2:23.15 - (30.9)
2200m - 2:54.25 - (31.0)
2600m - 3:25.38 - (31.1)
3000m - 3:56.75 - (31.3)
3400m - 4:28.55 - (31.8)
3800m - 5:01.11 - (32.5)
4200m - 5:34.59 - (33.4)
4600m - 6:07.93 - (33.3)
5000m - 6:41.34 - (33.3)
17.39 0
20 75 Cheol-Min  Kim KOR KOR 6:42.19200m - 19.47 - (19.4)
600m - 50.14 - (30.6)
1000m - 1:21.30 - (31.1)
1400m - 1:52.85 - (31.5)
1800m - 2:24.72 - (31.8)
2200m - 2:56.84 - (32.1)
2600m - 3:28.98 - (32.1)
3000m - 4:01.14 - (32.1)
3400m - 4:33.49 - (32.3)
3800m - 5:06.45 - (32.9)
4200m - 5:38.75 - (32.3)
4600m - 6:10.19 - (31.4)
5000m - 6:42.19 - (32.0)
18.24 0
21 61 Masahito  Obayashi JPN JPN 6:43.38200m - 19.52 - (19.5)
600m - 50.91 - (31.3)
1000m - 1:22.68 - (31.7)
1400m - 1:54.34 - (31.6)
1800m - 2:26.52 - (32.1)
2200m - 2:58.52 - (32.0)
2600m - 3:30.66 - (32.1)
3000m - 4:02.75 - (32.0)
3400m - 4:35.32 - (32.5)
3800m - 5:07.55 - (32.2)
4200m - 5:39.77 - (32.2)
4600m - 6:11.66 - (31.8)
5000m - 6:43.38 - (31.7)
19.43 0
22 3 Linus  Heidegger AUT AUT 6:44.58200m - 19.77 - (19.7)
600m - 51.22 - (31.4)
1000m - 1:22.36 - (31.1)
1400m - 1:53.87 - (31.5)
1800m - 2:25.71 - (31.8)
2200m - 2:57.73 - (32.0)
2600m - 3:29.67 - (31.9)
3000m - 4:01.63 - (31.9)
3400m - 4:33.84 - (32.2)
3800m - 5:06.34 - (32.5)
4200m - 5:39.04 - (32.7)
4600m - 6:11.86 - (32.8)
5000m - 6:44.58 - (32.7)
20.63 0
23 24 Talabuhan  Rehanbai CHN CHN 6:45.38200m - 19.68 - (19.6)
600m - 50.30 - (30.6)
1000m - 1:21.71 - (31.4)
1400m - 1:53.17 - (31.4)
1800m - 2:25.14 - (31.9)
2200m - 2:57.12 - (31.9)
2600m - 3:29.63 - (32.5)
3000m - 4:01.96 - (32.3)
3400m - 4:34.34 - (32.3)
3800m - 5:06.82 - (32.4)
4200m - 5:39.50 - (32.6)
4600m - 6:12.09 - (32.5)
5000m - 6:45.38 - (33.2)
21.43 0
24 111 Sebastian  Druszkiewicz POL POL 6:49.85200m - 19.91 - (19.9)
600m - 50.57 - (30.6)
1000m - 1:21.66 - (31.0)
1400m - 1:52.81 - (31.1)
1800m - 2:24.45 - (31.6)
2200m - 2:56.35 - (31.9)
2600m - 3:28.52 - (32.1)
3000m - 4:01.38 - (32.8)
3400m - 4:34.53 - (33.1)
3800m - 5:07.89 - (33.3)
4200m - 5:41.76 - (33.8)
4600m - 6:15.72 - (33.9)
5000m - 6:49.85 - (34.1)
25.90 0
25 21 Yiming  Liu CHN CHN 6:50.06200m - 19.79 - (19.7)
600m - 50.91 - (31.1)
1000m - 1:22.81 - (31.9)
1400m - 1:54.43 - (31.6)
1800m - 2:26.28 - (31.8)
2200m - 2:58.47 - (32.1)
2600m - 3:30.73 - (32.2)
3000m - 4:03.34 - (32.6)
3400m - 4:36.58 - (33.2)
3800m - 5:09.25 - (32.6)
4200m - 5:42.56 - (33.3)
4600m - 6:16.01 - (33.4)
5000m - 6:50.06 - (34.0)
26.11 0
26 43 Felix  Maly GER GER 6:55.27200m - 19.65 - (19.6)
600m - 50.13 - (30.4)
1000m - 1:21.00 - (30.8)
1400m - 1:52.63 - (31.6)
1800m - 2:24.31 - (31.6)
2200m - 2:56.09 - (31.7)
2600m - 3:28.35 - (32.2)
3000m - 4:01.05 - (32.7)
3400m - 4:34.61 - (33.5)
3800m - 5:08.97 - (34.3)
4200m - 5:43.69 - (34.7)
4600m - 6:19.17 - (35.4)
5000m - 6:55.27 - (36.0)
31.32 0
27 107 Reyon  Kay NZL NZL 6:56.91200m - 20.30 - (20.3)
600m - 51.22 - (30.9)
1000m - 1:22.30 - (31.0)
1400m - 1:53.77 - (31.4)
1800m - 2:25.46 - (31.6)
2200m - 2:57.05 - (31.5)
2600m - 3:29.03 - (31.9)
3000m - 4:01.37 - (32.3)
3400m - 4:34.57 - (33.1)
3800m - 5:08.84 - (34.2)
4200m - 5:44.59 - (35.7)
4600m - 6:20.57 - (35.9)
5000m - 6:56.91 - (36.3)
32.96 0
28 68 Dmitry  Babenko KAZ KAZ DNF200m - 19.01 - (19.0)
600m - 49.89 - (30.8)
1000m - 1:21.84 - (31.9)
1400m - 1:53.91 - (32.0)
1800m - 2:25.66 - (31.7)
2200m - 2:57.61 - (31.9)
2600m - 3:29.70 - (32.0)
3000m - 4:02.39 - (32.6)
3400m - 5:02.94 - (60.5)
0